DELTA 1 DEB, 10752

Orbit data source: Space-Track

DELTA 1 DEB, 10752 is space debris in SSO originally from a launch on Thu, 29 Jul 1976 UTC launched from the Air Force Western Test Range (AFWTR). Debris objects in space refer to the collection of defunct objects orbiting the Earth. Examples of debris include non-operational satellites, rocket bodies, and fragments generated from explosions, collisions, or faulty payload assembly.

Loading next visibility...
Identifier
10752, 1976-077AZ
Orbit
SSO
Country
Flag of USUS
Related business
Manufacturer
Unknown
Mission
Spacecraft
Bus & Motor
Unknown
Mass
Unknown
Launch date (UTC)
1976-07-29 (49 years ago)
Launch vehicle
Unknown
Launch site
Air Force Western Test Range (AFWTR)
Object type
Payload
Rocket body
Debris
Shape & HBR
Unknown shape, 0.1 m
Radar Cross Section
Small (<0.1 m²)

Expand to show TLE details & history
Last TLE update: 20 hours ago

TLE from 20 hours ago
0 DELTA 1 DEB
1 10752U 76077AZ  25291.12816530  .00001109  00000-0  39047-2 0  9993
2 10752 101.7243 177.6541 0328783 125.8271  17.9927 12.82387390272293
Epoch: 2025-10-18T03:04Z
TLE epoch observation values (Epoch: 2025-10-18T03:04:33.481Z)
Latitude
34.20537°
Longitude
-67.28155°
Altitude
1,095.841 km
Speed
7.421 km/s
True Right ascension
00h 22m 53s
True Declination
34° 03' 10"
Sunlit
Object was in full shadow at epoch
Visualization orbit readout
Latitude
Unknown
Longitude
Unknown
Altitude
Unknown
Speed
Unknown
Apparent Right ascension
Unknown
Apparent Declination
Unknown
Sunlit
N/A
Visualization observer readout
Local Sidereal Time
18:08:49
Azimuth
Unknown
Elevation
Unknown
Doppler factor
Unknown
Orbital elements
Apogee altitude
1,582.795 km
Perigee altitude
1,075.975 km
Semi-major axis
7,707.522 km
Eccentricity
0.03288
Inclination
101.7243°
RAAN
177.6541°
Arg. of periapsis
125.8271°
True anomaly
19.20366°
Mean anomaly
17.9927°
Eccentric anomaly
18.59334°
Mean motion
3.20753 °/min
Orbital period
112.24 mins
BSTAR
0.0039047
Loading maneuver chart data...
Computing Atmospheric mass density...
Loading historical data...
Loading historical data...
Loading historical data...
Loading historical data...
Loading historical data...
Loading historical data...
Loading historical data...

Documentation

Showing up to 5 results
|